| time (UTC) | temp F | wind direction | speed knots | gust knots | rain 1hr in | rain 24hr in | rain mn in | humidity % | barometer mb |
| 20260505022719 | 38 | 304 | 2.6 | 7.8 | 0.09 | 0.09 | 0.09 | 84 | 1013.6 |
| 20260505022213 | 39 | 0 | 0.9 | 4.3 | 0.07 | 0.07 | 0.07 | 84 | 1013.5 |
| 20260505021708 | 39 | 0 | 0.9 | 5.2 | 0.04 | 0.04 | 0.05 | 84 | 1013.4 |
| 20260505021201 | 40 | 0 | 2.6 | 8.7 | 0.03 | 0.03 | 0.03 | 84 | 1013.4 |
| 20260505020655 | 40 | 0 | 3.5 | 9.6 | 0.02 | 0.02 | 0.02 | 84 | 1013.2 |
| 20260505020149 | 40 | 59 | 5.2 | 9.6 | 0.01 | 0.01 | 0.01 | 83 | 1012.7 |
| 20260505015643 | 40 | 0 | 5.2 | 9.6 | 0.00 | 0.00 | 0.00 | 82 | 1013.0 |
| 20260505015136 | 41 | 0 | 6.1 | 10.4 | 0.00 | 0.00 | 0.00 | 81 | 1013.0 |
| 20260505014631 | 41 | 0 | 6.1 | 11.3 | 0.00 | 0.00 | 0.00 | 79 | 1012.8 |
| 20260505014125 | 42 | 0 | 7.0 | 11.3 | 0.00 | 0.00 | 0.00 | 77 | 1012.7 |
| 20260505013845 | 42 | 0 | 6.1 | 11.3 | 0.00 | 0.00 | 0.00 | 76 | 1012.7 |
| 20260505013113 | 42 | 0 | 3.5 | 11.3 | 0.00 | 0.00 | 0.00 | 76 | 1012.5 |
| 20260505012607 | 43 | 0 | 2.6 | 5.2 | 0.00 | 0.00 | 0.00 | 75 | 1012.6 |
| 20260505012101 | 43 | 0 | 3.5 | 7.0 | 0.00 | 0.00 | 0.00 | 74 | 1012.7 |
| 20260505011555 | 43 | 0 | 4.3 | 7.8 | 0.00 | 0.00 | 0.00 | 74 | 1012.8 |
| 20260505011049 | 43 | 0 | 3.5 | 7.8 | 0.00 | 0.00 | 0.00 | 72 | 1012.8 |
| 20260505010543 | 44 | 0 | 4.3 | 8.7 | 0.00 | 0.00 | 0.00 | 70 | 1012.7 |
| 20260505010037 | 44 | 156 | 5.2 | 10.4 | 0.00 | 0.00 | 0.00 | 69 | 1012.8 |
| 20260505005531 | 44 | 140 | 4.3 | 10.4 | 0.00 | 0.00 | 0.00 | 69 | 1012.6 |
| 20260505005025 | 44 | 172 | 4.3 | 9.6 | 0.00 | 0.00 | 0.00 | 70 | 1012.7 |
| 20260505004519 | 44 | 0 | 5.2 | 10.4 | 0.00 | 0.00 | 0.00 | 69 | 1012.8 |
| 20260505004234 | 44 | 0 | 5.2 | 10.4 | 0.00 | 0.00 | 0.00 | 69 | 1012.7 |
| 20260505003743 | 44 | 0 | 5.2 | 10.4 | 0.00 | 0.00 | 0.00 | 68 | 1012.8 |
| 20260505003238 | 45 | 0 | 4.3 | 8.7 | 0.00 | 0.00 | 0.00 | 68 | 1012.8 |
| 20260505002514 | 45 | 150 | 6.1 | 10.4 | 0.00 | 0.00 | 0.00 | 69 | 1012.8 |
| 20260505002015 | 45 | 0 | 7.0 | 10.4 | 0.00 | 0.00 | 0.00 | 69 | 1012.8 |
| 20260505001514 | 45 | 127 | 5.2 | 10.4 | 0.00 | 0.00 | 0.00 | 70 | 1012.8 |
| 20260505001238 | 45 | 114 | 3.5 | 9.6 | 0.00 | 0.00 | 0.00 | 70 | 1012.8 |
| 20260505000513 | 45 | 0 | 2.6 | 8.7 | 0.00 | 0.00 | 0.00 | 69 | 1013.0 |
| 20260505000015 | 45 | 138 | 2.6 | 6.1 | 0.00 | 0.00 | 0.00 | 67 | 1012.8 |
| 20260504235512 | 45 | 138 | 1.7 | 6.1 | 0.00 | 0.00 | 0.00 | 68 | 1012.8 |
| 20260504235011 | 45 | 105 | 0.9 | 4.3 | 0.00 | 0.00 | 0.00 | 67 | 1013.0 |
| 20260504234513 | 45 | 90 | 1.7 | 4.3 | 0.00 | 0.00 | 0.00 | 67 | 1013.0 |
| 20260504234010 | 45 | 92 | 2.6 | 6.1 | 0.00 | 0.00 | 0.00 | 66 | 1012.7 |
| 20260504233509 | 45 | 88 | 1.7 | 6.1 | 0.00 | 0.00 | 0.00 | 67 | 1012.7 |
| 20260504233009 | 45 | 83 | 0.9 | 4.3 | 0.00 | 0.00 | 0.00 | 66 | 1013.0 |
| 20260504233001 | 45 | 82 | 0.9 | 4.3 | 0.00 | 0.00 | 0.00 | 65 | 1013.0 |
| 20260504232009 | 45 | 82 | 1.7 | 6.1 | 0.00 | 0.00 | 0.00 | 65 | 1012.8 |
| 20260504231510 | 45 | 0 | 1.7 | 6.1 | 0.00 | 0.00 | 0.00 | 66 | 1012.5 |
| 20260504231010 | 45 | 65 | 1.7 | 5.2 | 0.00 | 0.00 | 0.00 | 65 | 1012.7 |
| 20260504230511 | 45 | 65 | 1.7 | 5.2 | 0.00 | 0.00 | 0.00 | 68 | 1012.6 |
| 20260504230009 | 45 | 69 | 1.7 | 5.2 | 0.00 | 0.00 | 0.00 | 66 | 1012.3 |
| 20260504225729 | 46 | 55 | 2.6 | 7.8 | 0.00 | 0.00 | 0.00 | 66 | 1012.5 |
| 20260504225009 | 46 | 55 | 1.7 | 7.8 | 0.00 | 0.00 | 0.00 | 65 | 1012.5 |
| 20260504224510 | 46 | 32 | 0.9 | 4.3 | 0.00 | 0.00 | 0.00 | 65 | 1012.6 |
| 20260504224234 | 46 | 32 | 0.9 | 5.2 | 0.00 | 0.00 | 0.00 | 65 | 1013.1 |
| 20260504223510 | 46 | 33 | 1.7 | 5.2 | 0.00 | 0.00 | 0.00 | 67 | 1013.1 |
| 20260504223010 | 47 | 355 | 2.6 | 7.8 | 0.00 | 0.00 | 0.00 | 65 | 1013.2 |
| 20260504222511 | 47 | 348 | 3.5 | 11.3 | 0.00 | 0.00 | 0.00 | 67 | 1013.4 |
| 20260504222009 | 47 | 0 | 3.5 | 11.3 | 0.00 | 0.00 | 0.00 | 65 | 1013.4 |
| 20260504221510 | 47 | 323 | 2.6 | 8.7 | 0.00 | 0.00 | 0.00 | 60 | 1013.5 |
| 20260504221229 | 47 | 0 | 1.7 | 8.7 | 0.00 | 0.00 | 0.00 | 56 | 1013.4 |
| 20260504220510 | 48 | 90 | 2.6 | 8.7 | 0.00 | 0.00 | 0.00 | 54 | 1013.5 |
| 20260504220230 | 48 | 0 | 4.3 | 9.6 | 0.00 | 0.00 | 0.00 | 53 | 1012.7 |
| 20260504215507 | 49 | 94 | 4.3 | 9.6 | 0.00 | 0.00 | 0.00 | 51 | 1012.6 |
| 20260504215458 | 49 | 0 | 2.6 | 7.8 | 0.00 | 0.00 | 0.00 | 49 | 1012.6 |
| 20260504214508 | 50 | 0 | 2.6 | 7.8 | 0.00 | 0.00 | 0.00 | 48 | 1012.6 |
| 20260504214443 | 51 | 70 | 3.5 | 9.6 | 0.00 | 0.00 | 0.00 | 46 | 1012.6 |
| 20260504213456 | 51 | 77 | 5.2 | 10.4 | 0.00 | 0.00 | 0.00 | 44 | 1012.6 |
| 20260504212950 | 52 | 79 | 6.1 | 13.0 | 0.00 | 0.00 | 0.00 | 44 | 1012.3 |
| 20260504212444 | 53 | 0 | 6.1 | 13.0 | 0.00 | 0.00 | 0.00 | 42 | 1012.5 |
| 20260504211937 | 54 | 104 | 7.0 | 13.0 | 0.00 | 0.00 | 0.00 | 39 | 1012.5 |
| 20260504211432 | 55 | 81 | 7.0 | 14.8 | 0.00 | 0.00 | 0.00 | 37 | 1012.3 |
| 20260504210926 | 57 | 0 | 5.2 | 14.8 | 0.00 | 0.00 | 0.00 | 35 | 1012.3 |
| 20260504210420 | 58 | 69 | 4.3 | 9.6 | 0.00 | 0.00 | 0.00 | 32 | 1012.2 |
| 20260504205915 | 58 | 77 | 4.3 | 9.6 | 0.00 | 0.00 | 0.00 | 31 | 1012.2 |
| 20260504205630 | 58 | 65 | 4.3 | 7.8 | 0.00 | 0.00 | 0.00 | 29 | 1012.2 |
| 20260504204902 | 59 | 77 | 4.3 | 8.7 | 0.00 | 0.00 | 0.00 | 28 | 1012.3 |
| 20260504204356 | 59 | 31 | 4.3 | 8.7 | 0.00 | 0.00 | 0.00 | 30 | 1012.5 |
| 20260504204330 | 59 | 329 | 6.1 | 11.3 | 0.00 | 0.00 | 0.00 | 32 | 1012.6 |
| 20260504203344 | 58 | 0 | 7.8 | 13.0 | 0.00 | 0.00 | 0.00 | 33 | 1012.6 |
| 20260504202837 | 57 | 325 | 7.8 | 13.9 | 0.00 | 0.00 | 0.00 | 35 | 1012.6 |
| 20260504202332 | 55 | 327 | 6.1 | 13.9 | 0.00 | 0.00 | 0.00 | 42 | 1012.6 |
| 20260504201826 | 54 | 239 | 7.8 | 14.8 | 0.00 | 0.00 | 0.00 | 39 | 1012.6 |
| 20260504201320 | 53 | 329 | 9.6 | 14.8 | 0.00 | 0.00 | 0.00 | 44 | 1012.6 |
| 20260504200814 | 52 | 237 | 9.6 | 16.5 | 0.00 | 0.00 | 0.00 | 40 | 1012.8 |
| 20260504200308 | 51 | 0 | 10.4 | 16.5 | 0.00 | 0.00 | 0.00 | 45 | 1012.8 |
| 20260504195801 | 50 | 213 | 11.3 | 20.0 | 0.00 | 0.00 | 0.00 | 49 | 1013.0 |
| 20260504195256 | 49 | 301 | 13.0 | 20.9 | 0.00 | 0.00 | 0.00 | 50 | 1013.0 |
| 20260504194749 | 49 | 234 | 14.8 | 23.5 | 0.00 | 0.00 | 0.00 | 48 | 1013.0 |
| 20260504194503 | 50 | 0 | 13.0 | 23.5 | 0.00 | 0.00 | 0.00 | 47 | 1013.1 |
| 20260504193738 | 50 | 237 | 10.4 | 19.1 | 0.00 | 0.00 | 0.00 | 44 | 1012.8 |
| 20260504193452 | 50 | 0 | 12.2 | 23.5 | 0.00 | 0.00 | 0.00 | 43 | 1012.8 |
| 20260504192726 | 51 | 233 | 13.9 | 23.5 | 0.00 | 0.00 | 0.00 | 42 | 1013.0 |
| 20260504192220 | 52 | 231 | 13.9 | 21.7 | 0.00 | 0.00 | 0.00 | 42 | 1013.0 |
| 20260504191714 | 53 | 237 | 12.2 | 22.6 | 0.00 | 0.00 | 0.00 | 41 | 1013.0 |
| 20260504191208 | 53 | 0 | 12.2 | 22.6 | 0.00 | 0.00 | 0.00 | 42 | 1012.8 |
| 20260504190930 | 55 | 0 | 12.2 | 21.7 | 0.00 | 0.00 | 0.00 | 42 | 1013.0 |
| 20260504190156 | 55 | 306 | 12.2 | 20.0 | 0.00 | 0.00 | 0.00 | 40 | 1013.0 |
| 20260504190127 | 56 | 0 | 12.2 | 20.9 | 0.00 | 0.00 | 0.00 | 38 | 1012.8 |
| 20260504185144 | 56 | 311 | 13.9 | 21.7 | 0.00 | 0.00 | 0.00 | 37 | 1012.8 |
| 20260504184638 | 56 | 228 | 13.0 | 21.7 | 0.00 | 0.00 | 0.00 | 35 | 1013.0 |
| 20260504184132 | 56 | 318 | 9.6 | 20.0 | 0.00 | 0.00 | 0.00 | 37 | 1013.1 |
| 20260504183627 | 56 | 295 | 8.7 | 16.5 | 0.00 | 0.00 | 0.00 | 37 | 1013.1 |
| 20260504183120 | 56 | 308 | 11.3 | 19.1 | 0.00 | 0.00 | 0.00 | 36 | 1013.4 |
| 20260504182614 | 57 | 311 | 11.3 | 19.1 | 0.00 | 0.00 | 0.00 | 34 | 1013.2 |
| 20260504182108 | 57 | 312 | 9.6 | 18.2 | 0.00 | 0.00 | 0.00 | 36 | 1013.4 |
| 20260504181602 | 56 | 0 | 9.6 | 15.6 | 0.00 | 0.00 | 0.00 | 37 | 1013.2 |
| 20260504181056 | 56 | 295 | 8.7 | 16.5 | 0.00 | 0.00 | 0.00 | 36 | 1013.2 |
| 20260504180550 | 56 | 303 | 8.7 | 18.2 | 0.00 | 0.00 | 0.00 | 36 | 1013.4 |
| 20260504180044 | 56 | 311 | 8.7 | 18.2 | 0.00 | 0.00 | 0.00 | 35 | 1013.6 |
| 20260504175538 | 55 | 0 | 7.0 | 14.8 | 0.00 | 0.00 | 0.00 | 37 | 1013.6 |
| 20260504175032 | 54 | 342 | 7.0 | 13.0 | 0.00 | 0.00 | 0.00 | 40 | 1013.6 |
| 20260504174526 | 53 | 233 | 7.0 | 13.0 | 0.00 | 0.00 | 0.00 | 39 | 1013.8 |
| 20260504174020 | 53 | 295 | 7.0 | 13.0 | 0.00 | 0.00 | 0.00 | 41 | 1013.9 |
| 20260504173736 | 52 | 304 | 5.2 | 13.0 | 0.00 | 0.00 | 0.00 | 40 | 1014.0 |
| 20260504173014 | 52 | 232 | 6.1 | 13.9 | 0.00 | 0.00 | 0.00 | 41 | 1014.2 |
| 20260504172514 | 52 | 304 | 9.6 | 17.4 | 0.00 | 0.00 | 0.00 | 42 | 1014.3 |
| 20260504172014 | 52 | 238 | 9.6 | 17.4 | 0.00 | 0.00 | 0.00 | 40 | 1014.4 |
| 20260504171515 | 51 | 338 | 9.6 | 18.2 | 0.00 | 0.00 | 0.00 | 42 | 1014.2 |
| 20260504171015 | 51 | 0 | 8.7 | 18.2 | 0.00 | 0.00 | 0.00 | 42 | 1014.3 |
| 20260504171003 | 51 | 320 | 8.7 | 15.6 | 0.00 | 0.00 | 0.00 | 42 | 1014.2 |
| 20260504151004 | 46 | 0 | 13.9 | 21.7 | 0.00 | 0.00 | 0.00 | 45 | 1014.0 |
| 20260504150502 | 46 | 0 | 14.8 | 26.1 | 0.00 | 0.00 | 0.00 | 46 | 1014.0 |
| 20260504141149 | 45 | 319 | 14.8 | 25.2 | 0.00 | 0.00 | 0.00 | 45 | 1013.9 |
| 20260504140421 | 45 | 297 | 15.6 | 25.2 | 0.00 | 0.00 | 0.00 | 45 | 1014.0 |
| 20260504140138 | 45 | 232 | 14.8 | 22.6 | 0.00 | 0.00 | 0.00 | 45 | 1014.0 |
| 20260504130814 | 44 | 236 | 6.1 | 13.9 | 0.00 | 0.00 | 0.00 | 40 | 1014.0 |
| 20260504130309 | 44 | 205 | 7.0 | 13.9 | 0.00 | 0.00 | 0.00 | 39 | 1014.0 |
| 20260504120157 | 42 | 300 | 7.0 | 10.4 | 0.00 | 0.00 | 0.00 | 35 | 1013.5 |
| 20260504110400 | 43 | 304 | 7.0 | 8.7 | 0.00 | 0.00 | 0.00 | 34 | 1013.8 |
| 20260504100138 | 43 | 0 | 7.0 | 10.4 | 0.00 | 0.00 | 0.00 | 35 | 1014.2 |
| 20260504081604 | 45 | 0 | 7.8 | 12.2 | 0.00 | 0.00 | 0.00 | 35 | 1014.8 |
| 20260504081058 | 45 | 235 | 8.7 | 12.2 | 0.00 | 0.00 | 0.00 | 35 | 1014.8 |
| 20260504080552 | 45 | 0 | 8.7 | 12.2 | 0.00 | 0.00 | 0.00 | 36 | 1014.9 |
| 20260504070220 | 44 | 227 | 8.7 | 13.9 | 0.00 | 0.00 | 0.00 | 39 | 1015.5 |
| 20260504050616 | 44 | 0 | 6.1 | 8.7 | 0.00 | 0.00 | 0.00 | 42 | 1016.4 |
| 20260504045843 | 44 | 0 | 6.1 | 9.6 | 0.00 | 0.00 | 0.00 | 41 | 1016.4 |
| 20260504045606 | 45 | 238 | 6.1 | 9.6 | 0.00 | 0.00 | 0.00 | 41 | 1016.5 |
| 20260504044832 | 45 | 238 | 6.1 | 9.6 | 0.00 | 0.00 | 0.00 | 41 | 1016.5 |
| 20260504044327 | 45 | 0 | 6.1 | 9.6 | 0.00 | 0.00 | 0.00 | 40 | 1016.5 |
| 20260504043820 | 45 | 0 | 6.1 | 9.6 | 0.00 | 0.00 | 0.00 | 39 | 1016.5 |
| 20260504043315 | 46 | 0 | 6.1 | 9.6 | 0.00 | 0.00 | 0.00 | 39 | 1016.5 |
| 20260504042808 | 46 | 0 | 7.0 | 9.6 | 0.00 | 0.00 | 0.00 | 39 | 1016.5 |
| 20260504042304 | 46 | 0 | 7.0 | 11.3 | 0.00 | 0.00 | 0.00 | 38 | 1016.6 |
| 20260504041755 | 47 | 0 | 7.0 | 11.3 | 0.00 | 0.00 | 0.00 | 38 | 1016.5 |
| 20260504041250 | 47 | 235 | 7.0 | 10.4 | 0.00 | 0.00 | 0.00 | 38 | 1016.6 |
| 20260504040744 | 47 | 0 | 7.0 | 12.2 | 0.00 | 0.00 | 0.00 | 38 | 1016.8 |
| 20260504040502 | 47 | 0 | 7.0 | 12.2 | 0.00 | 0.00 | 0.00 | 37 | 1016.6 |
| 20260504035732 | 48 | 0 | 7.0 | 10.4 | 0.00 | 0.00 | 0.00 | 37 | 1016.8 |
| 20260504035226 | 48 | 298 | 7.8 | 12.2 | 0.00 | 0.00 | 0.00 | 37 | 1016.8 |
| 20260504034720 | 48 | 296 | 7.8 | 12.2 | 0.00 | 0.00 | 0.00 | 37 | 1016.8 |
| 20260504034214 | 48 | 0 | 7.8 | 11.3 | 0.00 | 0.00 | 0.00 | 38 | 1016.9 |
| 20260504033708 | 48 | 0 | 7.8 | 13.9 | 0.00 | 0.00 | 0.00 | 37 | 1016.9 |
| 20260504033202 | 48 | 0 | 7.0 | 13.9 | 0.00 | 0.00 | 0.00 | 37 | 1016.8 |
| 20260504032656 | 47 | 243 | 7.8 | 13.0 | 0.00 | 0.00 | 0.00 | 38 | 1016.8 |
| 20260504032150 | 47 | 202 | 8.7 | 14.8 | 0.00 | 0.00 | 0.00 | 39 | 1016.8 |
| 20260504031643 | 47 | 235 | 9.6 | 16.5 | 0.00 | 0.00 | 0.00 | 40 | 1016.9 |
| 20260504031138 | 47 | 223 | 7.8 | 16.5 | 0.00 | 0.00 | 0.00 | 38 | 1016.9 |
| 20260504030632 | 47 | 0 | 5.2 | 10.4 | 0.00 | 0.00 | 0.00 | 40 | 1017.0 |
| 20260504030126 | 47 | 232 | 4.3 | 10.4 | 0.00 | 0.00 | 0.00 | 40 | 1016.9 |
| 20260504025619 | 48 | 0 | 4.3 | 7.8 | 0.00 | 0.00 | 0.00 | 41 | 1016.9 |
| 20260504025114 | 48 | 294 | 4.3 | 7.8 | 0.00 | 0.00 | 0.00 | 40 | 1016.9 |
| 20260504024611 | 48 | 0 | 5.2 | 7.8 | 0.00 | 0.00 | 0.00 | 39 | 1016.8 |
| 20260504024112 | 48 | 0 | 5.2 | 10.4 | 0.00 | 0.00 | 0.00 | 38 | 1016.8 |
| 20260504023612 | 49 | 0 | 5.2 | 10.4 | 0.00 | 0.00 | 0.00 | 38 | 1016.8 |
| 20260504023111 | 49 | 231 | 5.2 | 9.6 | 0.00 | 0.00 | 0.00 | 38 | 1016.8 |